Location: Grieser Field
(39.7333°N, 81.7975°W)
Time: 17:24:19
(UTC-04:00)

MOS 1-B - Visible Passes

Search period start: 24 April 2014 00:00
Search period end: 04 May 2014 00:00
Orbit: 906 x 914 km, 99.1° (Epoch: 23 April)

Date Brightness Start Highest point End Pass type
(mag) Time Alt. Az. Time Alt. Az. Time Alt. Az.
24 Apr 6.3 02:37:11 10° NE 02:41:10 19° E 02:41:24 19° E visible
24 Apr 4.4 04:17:42 10° N 04:23:24 60° WNW 04:24:40 49° WSW visible
25 Apr 6.1 02:42:33 10° NE 02:46:51 21° E 02:47:12 21° E visible
25 Apr 4.6 04:23:23 10° N 04:29:01 53° WNW 04:30:28 43° WSW visible
26 Apr 6.0 02:47:57 10° NE 02:52:32 24° E 02:53:00 23° ESE visible
26 Apr 4.7 04:29:04 10° N 04:34:36 48° WNW 04:36:17 38° WSW visible
27 Apr 5.8 02:53:24 10° NE 02:58:13 26° E 02:58:48 26° ESE visible
27 Apr 4.8 04:34:45 10° N 04:40:12 43° WNW 04:42:05 33° WSW visible
28 Apr 5.7 02:58:52 10° NE 03:03:53 30° E 03:04:36 29° ESE visible
28 Apr 5.0 04:40:28 10° N 04:45:47 39° WNW 04:47:53 29° WSW visible
29 Apr 5.5 03:04:22 10° NNE 03:09:33 33° E 03:10:24 32° ESE visible
29 Apr 5.1 04:46:11 10° N 04:51:22 35° WNW 04:53:40 26° WSW visible
30 Apr 5.3 03:09:52 10° NNE 03:15:13 37° E 03:16:12 34° ESE visible
30 Apr 5.3 04:51:54 10° N 04:56:57 32° WNW 04:59:28 23° WSW visible
01 May 5.2 03:15:24 10° NNE 03:20:52 41° E 03:22:00 37° SE visible
01 May 5.4 04:57:39 10° N 05:02:31 29° WNW 05:05:16 20° WSW visible
02 May 5.0 03:20:57 10° NNE 03:26:31 46° E 03:27:47 40° SE visible
02 May 5.5 05:03:25 10° N 05:08:05 26° WNW 05:11:03 17° WSW visible
03 May 4.9 03:26:31 10° NNE 03:32:10 51° E 03:33:34 42° SE visible
03 May 5.7 05:09:11 10° NNW 05:13:39 24° WNW 05:16:51 15° WSW visible
